Погода в Единце

Молдова     48°10′16″N   27°18′12″E
темп.,
°C
ветер,
м/с
пор.,
м/с
влажн.,
%
обл.,
%
осадки,
мм/ч
давл.,
гПа
погр.,
м
9 мая, вс
вс900:00+4сз38770 0.0 1022165
03:00+3зсз36830 0.0 1024120
06:00+3зсз35881 0.0 1025101
09:00+9сз35650 0.0 1026520
12:00+13сз34445 0.0 10261715
15:00+15зсз343887 0.0 10252239
18:00+15ю013721 0.0 10251505
21:00+11ююв22515 0.0 102614
10 мая, пн
пн1000:00+9юв33544 0.0 102740
03:00+8юв35576 0.0 102686
06:00+7вюв48645 0.0 1026131
09:00+12юв695410 0.0 1026455
12:00+17ююв78485 0.0 10261314
15:00+18ююв67455 0.0 10241547
18:00+18юв56495 0.0 10231425
21:00+13вюв49705 0.0 1024159
11 мая, вт
вт1100:00+10вюв410685 0.0 1024181
03:00+9вюв5107011 0.0 1024203
06:00+8вюв48740 0.0 1023150
09:00+13вюв57580 0.0 1023443
12:00+17вюв45440 0.0 10211118
15:00+19в44350 0.0 10201366
18:00+18в45480 0.0 10181253
21:00+14в48775 0.0 1018150
12 мая, ср
ср1200:00+11в398523 0.0 1018189
03:00+10в499649 0.0 1016234
06:00+9в599347 0.0 1016311
09:00+12в57640 0.0 1015702
12:00+15в555148 0.0 10131499
15:00+15в6554100 0.1 10121402
18:00+14всв555921 0.0 1011852
21:00+10в35775 0.0 101186
13 мая, чт
чт1300:00+8вюв34805 0.0 101069
03:00+8в478376 0.0 1009132
06:00+8вюв5994100 1.9 1008314
09:00+9юв61395100 8.2 1007652
12:00+12ю71084100 0.6 1007951
15:00+12ююв71087100 0.9 1007810
18:00+11юв4794100 0.6 1007461
21:00+10юв2397100 0.7 100878